Time,TemperatureF,DewpointF,PressureIn,WindDirection,WindDirectionDegrees,WindSpeedMPH,WindSpeedGustMPH,Humidity,HourlyPrecipIn,Conditions,Clouds,dailyrainin,SoftwareType,DateUTC
2013-09-28 00:00:00,72.3,72.3,29.97,NNE,20,4.5,7.0,100,0.00,,---,0.00,VWS V14.01,2013-09-28 04:00:00,
2013-09-28 00:01:00,72.0,72.0,29.97,NNE,15,3.6,4.5,100,0.00,,---,0.00,VWS V14.01,2013-09-28 04:01:00,
2013-09-28 00:02:00,74.8,70.0,30.00,NE,39,3.2,5.2,85,0.00,,---,0.00,VWS V14.01,2013-09-28 04:02:00,
2013-09-28 00:03:00,74.8,70.0,30.01,NE,48,2.1,5.2,85,0.00,,---,0.00,VWS V14.01,2013-09-28 04:03:00,
2013-09-28 00:04:00,73.8,69.0,30.00,NNE,22,5.7,6.6,85,0.00,,---,0.00,VWS V14.01,2013-09-28 04:04:00,
2013-09-28 00:05:00,74.4,69.6,30.00,NNE,13,1.7,6.6,85,0.00,,---,0.00,VWS V14.01,2013-09-28 04:05:00,
2013-09-28 00:06:00,72.3,72.3,29.97,North,4,3.4,3.9,100,0.01,,---,0.01,VWS V14.01,2013-09-28 04:06:00,
2013-09-28 00:11:00,71.9,71.9,29.97,North,350,2.5,2.7,100,0.01,,---,0.01,VWS V14.01,2013-09-28 04:11:00,
2013-09-28 00:16:00,72.4,72.4,29.97,North,11,4.6,5.2,100,0.01,,---,0.01,VWS V14.01,2013-09-28 04:16:00,
2013-09-28 00:21:00,72.3,72.3,29.97,North,359,2.9,3.0,100,0.01,,---,0.01,VWS V14.01,2013-09-28 04:21:00,
2013-09-28 00:26:00,72.5,72.5,29.97,NNE,21,2.6,3.7,100,0.01,,---,0.01,VWS V14.01,2013-09-28 04:26:00,
2013-09-28 00:31:00,72.4,72.4,29.97,NNW,338,6.6,6.6,100,0.01,,---,0.01,VWS V14.01,2013-09-28 04:31:00,
2013-09-28 00:36:00,72.3,72.3,29.97,North,350,5.0,6.0,100,0.01,,---,0.01,VWS V14.01,2013-09-28 04:36:00,
2013-09-28 00:41:00,72.1,72.1,29.97,NNW,346,5.2,6.4,100,0.01,,---,0.01,VWS V14.01,2013-09-28 04:41:00,
2013-09-28 00:46:00,72.0,72.0,29.97,North,7,3.6,3.9,100,0.01,,---,0.01,VWS V14.01,2013-09-28 04:46:00,
2013-09-28 00:51:00,72.3,72.3,29.97,North,4,1.7,2.2,100,0.01,,---,0.01,VWS V14.01,2013-09-28 04:51:00,
2013-09-28 00:56:00,71.9,71.9,29.97,North,352,3.2,3.4,100,0.01,,---,0.01,VWS V14.01,2013-09-28 04:56:00,
2013-09-28 01:01:00,71.7,71.7,29.96,North,359,4.1,5.4,100,0.01,,---,0.01,VWS V14.01,2013-09-28 05:01:00,
2013-09-28 01:06:00,71.2,71.2,29.96,NNE,13,4.3,5.3,100,0.00,,---,0.01,VWS V14.01,2013-09-28 05:06:00,
2013-09-28 01:12:00,71.9,71.9,29.96,North,359,4.7,5.3,100,0.00,,---,0.01,VWS V14.01,2013-09-28 05:12:00,
2013-09-28 01:17:00,71.5,71.5,29.96,NNW,339,4.3,4.3,100,0.00,,---,0.01,VWS V14.01,2013-09-28 05:17:00,
2013-09-28 01:22:00,72.2,72.2,29.96,NNE,13,3.0,3.7,100,0.00,,---,0.01,VWS V14.01,2013-09-28 05:22:00,
2013-09-28 01:27:00,71.8,71.8,29.96,North,349,3.2,4.5,100,0.00,,---,0.01,VWS V14.01,2013-09-28 05:27:00,
2013-09-28 01:32:00,70.7,70.7,29.96,North,359,5.3,6.8,100,0.00,,---,0.01,VWS V14.01,2013-09-28 05:32:00,
2013-09-28 01:37:00,71.8,71.8,29.96,NNE,13,2.8,4.0,100,0.00,,---,0.01,VWS V14.01,2013-09-28 05:37:00,
2013-09-28 01:42:00,71.3,71.3,29.96,North,11,2.4,3.0,100,0.00,,---,0.01,VWS V14.01,2013-09-28 05:42:00,
2013-09-28 01:47:00,71.7,71.7,29.96,North,359,2.9,4.8,100,0.00,,---,0.01,VWS V14.01,2013-09-28 05:47:00,
2013-09-28 01:52:00,71.8,71.8,29.95,North,3,0.3,2.5,100,0.00,,---,0.01,VWS V14.01,2013-09-28 05:52:00,
2013-09-28 01:57:00,71.6,71.6,29.96,NNE,24,0.0,0.0,100,0.00,,---,0.01,VWS V14.01,2013-09-28 05:57:00,
2013-09-28 02:02:00,72.0,72.0,29.95,North,11,0.0,0.9,100,0.00,,---,0.01,VWS V14.01,2013-09-28 06:02:00,
2013-09-28 02:07:00,71.7,71.7,29.95,North,8,0.0,0.0,100,0.00,,---,0.01,VWS V14.01,2013-09-28 06:07:00,
2013-09-28 02:12:00,70.9,70.9,29.95,NNW,346,2.4,2.4,100,0.00,,---,0.01,VWS V14.01,2013-09-28 06:12:00,
2013-09-28 02:17:00,71.9,71.9,29.95,NNW,330,5.5,6.2,100,0.00,,---,0.01,VWS V14.01,2013-09-28 06:17:00,
2013-09-28 02:22:00,71.5,71.5,29.95,North,8,3.5,4.4,100,0.00,,---,0.01,VWS V14.01,2013-09-28 06:22:00,
2013-09-28 02:27:00,71.5,71.5,29.95,North,3,3.7,3.7,100,0.00,,---,0.01,VWS V14.01,2013-09-28 06:27:00,
2013-09-28 02:32:00,71.4,71.4,29.95,NNW,346,3.0,3.0,100,0.00,,---,0.01,VWS V14.01,2013-09-28 06:32:00,
2013-09-28 02:37:00,71.6,71.6,29.95,North,352,5.2,5.3,100,0.00,,---,0.01,VWS V14.01,2013-09-28 06:37:00,
2013-09-28 02:42:00,71.6,71.6,29.95,North,7,0.6,1.4,100,0.00,,---,0.01,VWS V14.01,2013-09-28 06:42:00,
2013-09-28 02:47:00,71.2,71.2,29.95,NE,42,2.5,2.6,100,0.00,,---,0.01,VWS V14.01,2013-09-28 06:47:00,
2013-09-28 02:52:00,71.4,71.4,29.95,North,349,3.2,4.3,100,0.00,,---,0.01,VWS V14.01,2013-09-28 06:52:00,
2013-09-28 02:57:00,70.7,70.7,29.95,NNW,346,2.1,3.5,100,0.00,,---,0.01,VWS V14.01,2013-09-28 06:57:00,
2013-09-28 03:01:00,71.4,71.4,29.94,North,352,1.8,3.2,100,0.00,,---,0.01,VWS V14.01,2013-09-28 07:01:00,
2013-09-28 03:06:00,71.5,71.5,29.94,North,349,4.4,5.8,100,0.00,,---,0.01,VWS V14.01,2013-09-28 07:06:00,
2013-09-28 03:11:00,70.9,70.9,29.94,NNW,333,4.2,4.2,100,0.00,,---,0.01,VWS V14.01,2013-09-28 07:11:00,
2013-09-28 03:16:00,71.8,71.8,29.94,North,349,3.2,3.4,100,0.00,,---,0.01,VWS V14.01,2013-09-28 07:16:00,
2013-09-28 03:21:00,71.9,71.9,29.94,North,3,0.0,0.0,100,0.00,,---,0.01,VWS V14.01,2013-09-28 07:21:00,
2013-09-28 03:26:00,71.9,71.9,29.94,NNE,27,3.7,4.7,100,0.00,,---,0.01,VWS V14.01,2013-09-28 07:26:00,
2013-09-28 03:31:00,71.4,71.4,29.94,North,1,1.5,3.5,100,0.00,,---,0.01,VWS V14.01,2013-09-28 07:31:00,
2013-09-28 03:36:00,71.5,71.5,29.93,NNW,340,2.8,3.2,100,0.00,,---,0.01,VWS V14.01,2013-09-28 07:36:00,
2013-09-28 03:41:00,71.8,71.8,29.93,NNE,18,2.2,3.6,100,0.00,,---,0.01,VWS V14.01,2013-09-28 07:41:00,
2013-09-28 03:46:00,71.8,71.8,29.93,NW,322,0.0,0.0,100,0.00,,---,0.01,VWS V14.01,2013-09-28 07:46:00,
2013-09-28 03:51:00,71.7,71.7,29.93,NNW,339,0.0,0.0,100,0.00,,---,0.01,VWS V14.01,2013-09-28 07:51:00,
2013-09-28 03:56:00,70.8,70.8,29.93,NNW,339,0.0,0.0,100,0.00,,---,0.01,VWS V14.01,2013-09-28 07:56:00,
2013-09-28 04:01:00,71.3,71.3,29.93,NNW,339,0.0,0.0,100,0.00,,---,0.01,VWS V14.01,2013-09-28 08:01:00,
2013-09-28 04:06:00,71.2,71.2,29.93,NNW,339,0.0,0.0,100,0.00,,---,0.01,VWS V14.01,2013-09-28 08:06:00,
2013-09-28 04:11:00,71.5,71.5,29.93,NNW,339,0.0,0.0,100,0.00,,---,0.01,VWS V14.01,2013-09-28 08:11:00,
2013-09-28 04:16:00,71.1,71.1,29.93,NNW,339,0.0,0.0,100,0.00,,---,0.01,VWS V14.01,2013-09-28 08:16:00,
2013-09-28 04:21:00,70.3,70.3,29.93,NNW,339,0.0,0.0,100,0.00,,---,0.01,VWS V14.01,2013-09-28 08:21:00,
2013-09-28 04:26:00,70.9,70.9,29.93,NNW,339,0.0,0.0,100,0.00,,---,0.01,VWS V14.01,2013-09-28 08:26:00,
2013-09-28 04:31:00,70.7,70.7,29.93,NNW,339,0.0,0.0,100,0.00,,---,0.01,VWS V14.01,2013-09-28 08:31:00,
2013-09-28 04:36:00,71.3,71.3,29.93,NNW,338,0.0,0.0,100,0.00,,---,0.01,VWS V14.01,2013-09-28 08:36:00,
2013-09-28 04:41:00,70.8,70.8,29.93,NNW,338,0.0,0.0,100,0.00,,---,0.01,VWS V14.01,2013-09-28 08:41:00,
2013-09-28 04:46:00,70.7,70.7,29.93,NNW,338,0.0,0.0,100,0.00,,---,0.01,VWS V14.01,2013-09-28 08:46:00,
2013-09-28 04:51:00,70.7,70.7,29.94,NNW,338,0.0,0.0,100,0.00,,---,0.01,VWS V14.01,2013-09-28 08:51:00,
2013-09-28 04:56:00,70.8,70.8,29.93,NNW,338,0.0,0.0,100,0.00,,---,0.01,VWS V14.01,2013-09-28 08:56:00,
2013-09-28 05:01:00,71.1,71.1,29.93,NNW,338,0.0,0.0,100,0.00,,---,0.01,VWS V14.01,2013-09-28 09:01:00,
2013-09-28 05:06:00,71.0,71.0,29.94,NNW,338,0.0,0.0,100,0.00,,---,0.01,VWS V14.01,2013-09-28 09:06:00,
2013-09-28 05:11:00,71.2,71.2,29.94,NNW,338,0.0,0.0,100,0.00,,---,0.01,VWS V14.01,2013-09-28 09:11:00,
2013-09-28 05:16:00,70.9,70.9,29.94,NNW,338,0.0,0.0,100,0.00,,---,0.01,VWS V14.01,2013-09-28 09:16:00,
2013-09-28 05:21:00,70.8,70.8,29.94,North,349,3.1,3.3,100,0.00,,---,0.01,VWS V14.01,2013-09-28 09:21:00,
2013-09-28 05:26:00,70.6,70.6,29.94,NW,322,0.0,0.6,100,0.00,,---,0.01,VWS V14.01,2013-09-28 09:26:00,
2013-09-28 05:31:00,70.5,70.5,29.94,North,356,2.8,3.5,100,0.00,,---,0.01,VWS V14.01,2013-09-28 09:31:00,
2013-09-28 05:36:00,70.7,70.7,29.94,NNW,346,3.8,3.9,100,0.00,,---,0.01,VWS V14.01,2013-09-28 09:36:00,
2013-09-28 05:41:00,71.1,71.1,29.94,North,350,3.3,3.7,100,0.00,,---,0.01,VWS V14.01,2013-09-28 09:41:00,
2013-09-28 05:46:00,71.1,71.1,29.95,NW,323,0.0,0.0,100,0.00,,---,0.01,VWS V14.01,2013-09-28 09:46:00,
2013-09-28 05:51:00,70.6,70.6,29.95,NW,323,0.0,0.0,100,0.00,,---,0.01,VWS V14.01,2013-09-28 09:51:00,
2013-09-28 05:56:00,70.8,70.8,29.95,NW,323,0.0,0.0,100,0.00,,---,0.01,VWS V14.01,2013-09-28 09:56:00,
2013-09-28 06:01:00,70.6,70.6,29.95,NW,323,0.0,0.0,100,0.00,,---,0.01,VWS V14.01,2013-09-28 10:01:00,
2013-09-28 06:06:00,70.9,70.9,29.95,NW,323,0.0,0.0,100,0.00,,---,0.01,VWS V14.01,2013-09-28 10:06:00,
2013-09-28 06:11:00,70.9,70.9,29.95,North,350,1.4,3.6,100,0.00,,---,0.01,VWS V14.01,2013-09-28 10:11:00,
2013-09-28 06:16:00,70.4,70.4,29.95,North,354,3.2,4.0,100,0.00,,---,0.01,VWS V14.01,2013-09-28 10:16:00,
2013-09-28 06:21:00,70.7,70.7,29.95,NNE,13,0.9,1.8,100,0.00,,---,0.01,VWS V14.01,2013-09-28 10:21:00,
2013-09-28 06:26:00,71.0,71.0,29.95,NNE,14,0.0,0.0,100,0.00,,---,0.01,VWS V14.01,2013-09-28 10:26:00,
2013-09-28 06:31:00,70.0,70.0,29.95,NW,319,0.6,2.7,100,0.00,,---,0.01,VWS V14.01,2013-09-28 10:31:00,
2013-09-28 06:36:00,70.6,70.6,29.96,North,353,0.2,3.5,100,0.00,,---,0.01,VWS V14.01,2013-09-28 10:36:00,
2013-09-28 06:41:00,71.0,71.0,29.96,NNW,345,2.3,2.6,100,0.00,,---,0.01,VWS V14.01,2013-09-28 10:41:00,
2013-09-28 06:46:00,71.3,71.3,29.96,North,349,2.8,4.7,100,0.00,,---,0.01,VWS V14.01,2013-09-28 10:46:00,
2013-09-28 06:51:00,70.1,70.1,29.97,North,4,3.7,4.1,100,0.00,,---,0.01,VWS V14.01,2013-09-28 10:51:00,
2013-09-28 06:56:00,70.5,70.5,29.97,North,6,2.9,6.6,100,0.00,,---,0.01,VWS V14.01,2013-09-28 10:56:00,
2013-09-28 07:01:00,71.5,71.5,29.97,North,4,4.2,6.0,100,0.00,,---,0.01,VWS V14.01,2013-09-28 11:01:00,
2013-09-28 07:06:00,71.4,71.4,29.97,NNE,13,1.4,5.0,100,0.00,,---,0.01,VWS V14.01,2013-09-28 11:06:00,
2013-09-28 07:11:00,70.4,70.4,29.97,North,354,1.0,1.5,100,0.00,,---,0.01,VWS V14.01,2013-09-28 11:11:00,
2013-09-28 07:16:00,71.2,71.2,29.97,North,11,0.0,6.3,100,0.00,,---,0.01,VWS V14.01,2013-09-28 11:16:00,
2013-09-28 07:21:00,71.5,71.5,29.97,NNE,13,1.7,4.9,100,0.00,,---,0.01,VWS V14.01,2013-09-28 11:21:00,
2013-09-28 07:26:00,71.6,71.6,29.98,NNE,14,4.7,4.7,100,0.00,,---,0.01,VWS V14.01,2013-09-28 11:26:00,
2013-09-28 07:31:00,71.1,71.1,29.98,North,7,1.1,2.2,100,0.00,,---,0.01,VWS V14.01,2013-09-28 11:31:00,
2013-09-28 07:36:00,71.7,71.7,29.98,North,6,0.0,2.2,100,0.00,,---,0.01,VWS V14.01,2013-09-28 11:36:00,
2013-09-28 07:41:00,71.9,71.9,29.98,North,10,0.5,4.3,100,0.00,,---,0.01,VWS V14.01,2013-09-28 11:41:00,
2013-09-28 07:46:00,71.8,71.8,29.98,NNE,21,1.5,3.4,100,0.00,,---,0.01,VWS V14.01,2013-09-28 11:46:00,
2013-09-28 07:51:00,70.8,70.8,29.98,NNE,31,1.4,8.1,100,0.00,,---,0.01,VWS V14.01,2013-09-28 11:51:00,
2013-09-28 07:56:00,72.2,72.2,29.99,North,350,1.7,6.3,100,0.00,,---,0.01,VWS V14.01,2013-09-28 11:56:00,
2013-09-28 08:01:00,72.4,72.4,29.99,North,7,3.7,4.8,100,0.00,,---,0.01,VWS V14.01,2013-09-28 12:01:00,
2013-09-28 08:06:00,72.1,72.1,29.98,NNE,30,3.0,3.0,100,0.00,,---,0.01,VWS V14.01,2013-09-28 12:06:00,
2013-09-28 08:11:00,72.4,72.4,29.99,NNE,22,0.0,4.0,100,0.00,,---,0.01,VWS V14.01,2013-09-28 12:11:00,
2013-09-28 08:16:00,72.7,72.7,29.98,North,357,0.0,1.7,100,0.00,,---,0.01,VWS V14.01,2013-09-28 12:16:00,
2013-09-28 08:21:00,72.7,72.7,29.99,NNE,25,4.3,5.3,100,0.00,,---,0.01,VWS V14.01,2013-09-28 12:21:00,
2013-09-28 08:26:00,72.5,72.5,29.99,NNE,32,1.6,5.3,100,0.00,,---,0.01,VWS V14.01,2013-09-28 12:26:00,
2013-09-28 08:31:00,72.4,72.4,29.99,North,10,1.0,3.8,100,0.00,,---,0.01,VWS V14.01,2013-09-28 12:31:00,
2013-09-28 08:36:00,72.7,72.7,30.00,ENE,77,0.0,0.0,100,0.00,,---,0.01,VWS V14.01,2013-09-28 12:36:00,
2013-09-28 08:41:00,72.9,72.9,29.99,NNE,14,0.0,2.1,100,0.00,,---,0.01,VWS V14.01,2013-09-28 12:41:00,
2013-09-28 08:46:00,72.2,72.2,30.00,NE,34,0.0,4.2,100,0.00,,---,0.01,VWS V14.01,2013-09-28 12:46:00,
2013-09-28 08:51:00,72.5,72.5,30.00,North,8,0.0,3.1,100,0.00,,---,0.01,VWS V14.01,2013-09-28 12:51:00,
2013-09-28 08:56:00,73.1,73.1,30.00,North,10,0.0,2.0,100,0.00,,---,0.01,VWS V14.01,2013-09-28 12:56:00,
2013-09-28 09:01:00,72.7,72.7,30.00,NNE,20,5.3,5.5,100,0.00,,---,0.01,VWS V14.01,2013-09-28 13:01:00,
2013-09-28 09:06:00,73.5,73.5,30.00,NE,41,0.0,0.6,100,0.00,,---,0.01,VWS V14.01,2013-09-28 13:06:00,
2013-09-28 09:11:00,73.9,73.9,30.00,North,7,3.5,5.0,100,0.00,,---,0.01,VWS V14.01,2013-09-28 13:11:00,
2013-09-28 09:16:00,73.4,73.4,30.00,NNE,22,1.4,7.1,100,0.00,,---,0.01,VWS V14.01,2013-09-28 13:16:00,
2013-09-28 09:21:00,74.0,74.0,30.00,NNE,25,3.2,6.5,100,0.00,,---,0.01,VWS V14.01,2013-09-28 13:21:00,
2013-09-28 09:26:00,74.6,74.6,30.00,NNE,27,0.0,4.6,100,0.00,,---,0.01,VWS V14.01,2013-09-28 13:26:00,
2013-09-28 09:31:00,74.5,74.5,30.00,North,357,5.7,7.5,100,0.00,,---,0.01,VWS V14.01,2013-09-28 13:31:00,
2013-09-28 09:36:00,74.8,74.8,30.00,North,4,0.6,4.7,100,0.00,,---,0.01,VWS V14.01,2013-09-28 13:36:00,
2013-09-28 09:41:00,75.4,75.4,30.01,NNE,28,0.9,1.7,100,0.00,,---,0.01,VWS V14.01,2013-09-28 13:41:00,
2013-09-28 09:46:00,75.5,75.3,30.01,North,4,1.9,3.7,99,0.00,,---,0.01,VWS V14.01,2013-09-28 13:46:00,
2013-09-28 09:51:00,75.4,74.6,30.01,North,354,6.8,8.3,97,0.00,,---,0.01,VWS V14.01,2013-09-28 13:51:00,
2013-09-28 09:56:00,76.1,75.0,30.01,North,1,4.4,5.0,96,0.00,,---,0.01,VWS V14.01,2013-09-28 13:56:00,
2013-09-28 10:01:00,76.1,74.9,30.01,NNE,28,0.8,4.0,96,0.00,,---,0.01,VWS V14.01,2013-09-28 14:01:00,
2013-09-28 10:06:00,75.4,73.5,30.01,North,359,4.3,6.9,94,0.00,,---,0.01,VWS V14.01,2013-09-28 14:06:00,
2013-09-28 10:11:00,77.2,75.4,30.01,North,352,2.9,4.5,94,0.00,,---,0.01,VWS V14.01,2013-09-28 14:11:00,
2013-09-28 10:16:00,77.7,75.5,30.01,NNE,27,4.5,8.3,93,0.00,,---,0.01,VWS V14.01,2013-09-28 14:16:00,
2013-09-28 10:21:00,78.0,75.5,30.02,NNE,13,7.6,7.8,92,0.00,,---,0.01,VWS V14.01,2013-09-28 14:21:00,
2013-09-28 10:26:00,78.2,75.0,30.02,North,6,2.5,2.5,90,0.00,,---,0.01,VWS V14.01,2013-09-28 14:26:00,
2013-09-28 10:31:00,78.0,74.2,30.02,North,8,3.1,7.8,88,0.00,,---,0.01,VWS V14.01,2013-09-28 14:31:00,
2013-09-28 10:36:00,78.3,73.7,30.02,North,359,3.6,3.6,86,0.00,,---,0.01,VWS V14.01,2013-09-28 14:36:00,
2013-09-28 10:41:00,79.0,74.2,30.02,NNE,15,2.1,9.5,85,0.00,,---,0.01,VWS V14.01,2013-09-28 14:41:00,
2013-09-28 10:46:00,79.0,73.3,30.02,NNE,32,6.0,7.3,83,0.00,,---,0.01,VWS V14.01,2013-09-28 14:46:00,
2013-09-28 10:51:00,79.9,73.7,30.02,East,96,2.9,8.0,82,0.00,,---,0.01,VWS V14.01,2013-09-28 14:51:00,
2013-09-28 10:56:00,79.4,72.9,30.02,ENE,62,2.2,9.0,80,0.00,,---,0.01,VWS V14.01,2013-09-28 14:56:00,
2013-09-28 11:01:00,79.5,72.8,30.02,North,10,2.6,2.6,80,0.00,,---,0.01,VWS V14.01,2013-09-28 15:01:00,
2013-09-28 11:06:00,79.9,72.8,30.02,North,11,1.4,3.2,79,0.00,,---,0.01,VWS V14.01,2013-09-28 15:06:00,
2013-09-28 11:11:00,80.0,73.3,30.02,NE,52,2.1,6.6,80,0.00,,---,0.01,VWS V14.01,2013-09-28 15:11:00,
2013-09-28 11:16:00,80.5,73.1,30.02,NNE,24,2.1,5.3,78,0.00,,---,0.01,VWS V14.01,2013-09-28 15:16:00,
2013-09-28 11:21:00,80.1,72.5,30.02,SSE,162,0.7,6.0,78,0.00,,---,0.01,VWS V14.01,2013-09-28 15:21:00,
2013-09-28 11:26:00,80.4,72.8,30.02,NNE,15,3.5,6.4,78,0.00,,---,0.01,VWS V14.01,2013-09-28 15:26:00,
2013-09-28 11:31:00,80.2,72.8,30.02,NE,38,2.8,3.7,78,0.00,,---,0.01,VWS V14.01,2013-09-28 15:31:00,
2013-09-28 11:36:00,79.5,71.6,30.02,ENE,63,1.4,6.2,77,0.00,,---,0.01,VWS V14.01,2013-09-28 15:36:00,
2013-09-28 11:41:00,79.9,72.4,30.02,NNE,22,3.0,3.7,78,0.00,,---,0.01,VWS V14.01,2013-09-28 15:41:00,
2013-09-28 11:46:00,80.0,71.8,30.02,NNE,21,2.5,4.3,76,0.00,,---,0.01,VWS V14.01,2013-09-28 15:46:00,
2013-09-28 11:51:00,80.8,72.9,30.02,NE,52,5.3,6.0,77,0.00,,---,0.01,VWS V14.01,2013-09-28 15:51:00,
2013-09-28 11:56:00,80.6,72.8,30.02,SE,125,1.4,5.2,77,0.00,,---,0.01,VWS V14.01,2013-09-28 15:56:00,
2013-09-28 12:01:00,80.3,71.9,30.02,SE,138,2.5,3.5,76,0.00,,---,0.01,VWS V14.01,2013-09-28 16:01:00,
2013-09-28 12:06:00,81.4,72.6,30.02,ENE,66,0.5,5.2,75,0.00,,---,0.01,VWS V14.01,2013-09-28 16:06:00,
2013-09-28 12:11:00,80.7,72.0,30.02,ENE,70,1.4,2.3,75,0.00,,---,0.01,VWS V14.01,2013-09-28 16:11:00,
2013-09-28 12:16:00,81.0,72.1,30.02,NNE,30,2.1,2.9,74,0.00,,---,0.01,VWS V14.01,2013-09-28 16:16:00,
2013-09-28 12:21:00,80.3,71.3,30.02,NE,37,5.3,5.3,74,0.00,,---,0.01,VWS V14.01,2013-09-28 16:21:00,
2013-09-28 12:26:00,80.4,71.8,30.02,NNE,22,3.9,6.4,75,0.00,,---,0.01,VWS V14.01,2013-09-28 16:26:00,
2013-09-28 12:31:00,80.7,71.7,30.02,East,101,1.0,1.8,74,0.00,,---,0.01,VWS V14.01,2013-09-28 16:31:00,
2013-09-28 12:36:00,80.7,70.9,30.02,East,80,3.1,4.0,72,0.00,,---,0.01,VWS V14.01,2013-09-28 16:36:00,
2013-09-28 12:41:00,82.1,70.8,30.02,NNE,13,1.6,2.5,69,0.00,,---,0.01,VWS V14.01,2013-09-28 16:41:00,
2013-09-28 12:46:00,80.9,69.0,30.02,NNE,31,5.3,9.7,67,0.00,,---,0.01,VWS V14.01,2013-09-28 16:46:00,
2013-09-28 12:51:00,82.7,70.4,30.02,NE,41,2.8,8.7,66,0.00,,---,0.01,VWS V14.01,2013-09-28 16:51:00,
2013-09-28 12:56:00,82.2,69.8,30.02,NNW,332,2.1,9.4,66,0.00,,---,0.01,VWS V14.01,2013-09-28 16:56:00,
2013-09-28 13:01:00,82.4,70.4,30.02,NNE,22,5.5,9.8,67,0.00,,---,0.01,VWS V14.01,2013-09-28 17:01:00,
2013-09-28 13:06:00,83.3,70.8,30.02,ENE,76,2.1,2.9,66,0.00,,---,0.01,VWS V14.01,2013-09-28 17:06:00,
2013-09-28 13:11:00,82.7,70.5,30.01,NNE,30,4.6,10.8,67,0.00,,---,0.01,VWS V14.01,2013-09-28 17:11:00,
2013-09-28 13:16:00,83.3,70.7,30.02,North,6,7.1,10.9,66,0.00,,---,0.01,VWS V14.01,2013-09-28 17:16:00,
2013-09-28 13:21:00,82.5,70.4,30.01,ENE,77,0.9,8.0,67,0.00,,---,0.01,VWS V14.01,2013-09-28 17:21:00,
2013-09-28 13:26:00,82.8,70.6,30.01,North,6,3.4,9.1,67,0.00,,---,0.01,VWS V14.01,2013-09-28 17:26:00,
2013-09-28 13:31:00,82.5,70.3,30.01,North,11,8.0,8.5,67,0.00,,---,0.01,VWS V14.01,2013-09-28 17:31:00,
2013-09-28 13:36:00,81.7,70.4,30.01,NE,41,4.0,4.3,69,0.00,,---,0.01,VWS V14.01,2013-09-28 17:36:00,
2013-09-28 13:41:00,82.4,71.0,30.01,NE,51,2.1,4.6,68,0.00,,---,0.01,VWS V14.01,2013-09-28 17:41:00,
2013-09-28 13:46:00,81.0,69.8,30.00,ENE,73,1.2,2.7,69,0.00,,---,0.01,VWS V14.01,2013-09-28 17:46:00,
2013-09-28 13:51:00,81.8,70.7,30.00,ESE,112,4.2,6.6,69,0.00,,---,0.01,VWS V14.01,2013-09-28 17:51:00,
2013-09-28 13:56:00,81.9,71.0,30.00,ENE,69,2.2,4.5,70,0.00,,---,0.01,VWS V14.01,2013-09-28 17:56:00,
2013-09-28 14:01:00,81.6,70.6,30.00,NNE,13,5.7,5.7,69,0.00,,---,0.01,VWS V14.01,2013-09-28 18:01:00,
2013-09-28 14:06:00,81.4,71.0,30.00,NE,51,8.8,9.2,71,0.00,,---,0.01,VWS V14.01,2013-09-28 18:06:00,
2013-09-28 14:11:00,80.5,70.4,30.00,NE,46,1.0,6.3,71,0.00,,---,0.01,VWS V14.01,2013-09-28 18:11:00,
2013-09-28 14:16:00,80.4,70.2,30.00,ESE,111,2.1,5.7,71,0.00,,---,0.01,VWS V14.01,2013-09-28 18:16:00,
2013-09-28 14:21:00,79.9,70.1,29.99,NE,56,1.7,5.4,72,0.00,,---,0.01,VWS V14.01,2013-09-28 18:21:00,
2013-09-28 14:26:00,80.5,71.0,29.99,East,100,2.7,3.6,73,0.00,,---,0.01,VWS V14.01,2013-09-28 18:26:00,
2013-09-28 14:31:00,79.9,70.8,29.99,NNE,20,2.8,3.0,74,0.00,,---,0.01,VWS V14.01,2013-09-28 18:31:00,
2013-09-28 14:36:00,80.5,71.7,29.98,NNE,30,3.7,4.0,74,0.00,,---,0.01,VWS V14.01,2013-09-28 18:36:00,
2013-09-28 14:41:00,80.9,71.8,29.98,NNE,14,0.0,0.0,74,0.00,,---,0.01,VWS V14.01,2013-09-28 18:41:00,
2013-09-28 14:46:00,81.0,71.6,29.98,NE,46,1.3,2.7,73,0.00,,---,0.01,VWS V14.01,2013-09-28 18:46:00,
2013-09-28 14:51:00,80.7,70.8,29.98,East,80,0.0,1.1,72,0.00,,---,0.01,VWS V14.01,2013-09-28 18:51:00,
2013-09-28 14:56:00,81.4,71.5,29.98,NNE,32,1.4,2.6,72,0.00,,---,0.01,VWS V14.01,2013-09-28 18:56:00,
2013-09-28 15:01:00,81.3,70.9,29.98,ENE,70,0.6,2.7,71,0.00,,---,0.01,VWS V14.01,2013-09-28 19:01:00,
2013-09-28 15:06:00,81.8,71.2,29.98,North,10,1.1,3.7,70,0.00,,---,0.01,VWS V14.01,2013-09-28 19:06:00,
2013-09-28 15:11:00,82.1,71.0,29.97,NNE,20,6.1,6.7,69,0.00,,---,0.01,VWS V14.01,2013-09-28 19:11:00,
2013-09-28 15:16:00,81.5,70.2,29.97,ENE,76,3.0,4.3,69,0.00,,---,0.01,VWS V14.01,2013-09-28 19:16:00,
2013-09-28 15:21:00,82.3,71.2,29.97,ENE,62,1.2,3.4,69,0.00,,---,0.01,VWS V14.01,2013-09-28 19:21:00,
2013-09-28 15:26:00,81.4,70.4,29.97,ENE,62,2.9,3.4,69,0.00,,---,0.01,VWS V14.01,2013-09-28 19:26:00,
2013-09-28 15:31:00,82.1,71.9,29.97,NNE,15,6.5,7.6,71,0.00,,---,0.01,VWS V14.01,2013-09-28 19:31:00,
2013-09-28 15:36:00,81.8,70.8,29.97,NE,34,1.9,4.0,69,0.00,,---,0.01,VWS V14.01,2013-09-28 19:36:00,
2013-09-28 15:41:00,81.7,70.8,29.97,NE,41,3.2,8.2,70,0.00,,---,0.01,VWS V14.01,2013-09-28 19:41:00,
2013-09-28 15:46:00,82.7,71.2,29.97,SE,127,2.1,7.3,68,0.00,,---,0.01,VWS V14.01,2013-09-28 19:46:00,
2013-09-28 15:51:00,81.4,70.2,29.97,NNE,27,0.7,4.0,69,0.00,,---,0.01,VWS V14.01,2013-09-28 19:51:00,
2013-09-28 15:56:00,82.7,72.1,29.97,North,352,1.4,6.5,70,0.00,,---,0.01,VWS V14.01,2013-09-28 19:56:00,
2013-09-28 16:01:00,82.6,71.8,29.97,North,11,1.5,4.2,70,0.00,,---,0.01,VWS V14.01,2013-09-28 20:01:00,
2013-09-28 16:06:00,82.4,70.9,29.97,East,100,3.0,4.3,68,0.00,,---,0.01,VWS V14.01,2013-09-28 20:06:00,
2013-09-28 16:11:00,83.3,71.6,29.96,NE,56,1.4,9.1,68,0.00,,---,0.01,VWS V14.01,2013-09-28 20:11:00,
2013-09-28 16:16:00,84.0,72.0,29.96,NNE,18,2.9,4.3,67,0.00,,---,0.01,VWS V14.01,2013-09-28 20:16:00,
2013-09-28 16:21:00,84.0,70.7,29.96,ENE,60,2.1,5.3,64,0.00,,---,0.01,VWS V14.01,2013-09-28 20:21:00,
2013-09-28 16:26:00,84.0,71.6,29.97,NE,35,3.0,3.9,66,0.00,,---,0.01,VWS V14.01,2013-09-28 20:26:00,
2013-09-28 16:31:00,82.5,70.8,29.96,ENE,58,1.7,5.6,68,0.00,,---,0.01,VWS V14.01,2013-09-28 20:31:00,
2013-09-28 16:36:00,82.7,70.7,29.97,NNE,32,2.1,4.7,67,0.00,,---,0.01,VWS V14.01,2013-09-28 20:36:00,
2013-09-28 16:41:00,82.2,69.8,29.96,North,8,4.9,4.9,66,0.00,,---,0.01,VWS V14.01,2013-09-28 20:41:00,
2013-09-28 16:46:00,81.4,69.6,29.96,East,82,2.5,4.2,68,0.00,,---,0.01,VWS V14.01,2013-09-28 20:46:00,
2013-09-28 16:51:00,81.9,70.9,29.96,SE,127,3.0,3.0,69,0.00,,---,0.01,VWS V14.01,2013-09-28 20:51:00,
2013-09-28 16:56:00,81.5,69.1,29.96,East,82,1.4,2.7,66,0.00,,---,0.01,VWS V14.01,2013-09-28 20:56:00,
2013-09-28 17:01:00,82.5,69.0,29.96,East,91,3.7,6.0,64,0.00,,---,0.01,VWS V14.01,2013-09-28 21:01:00,
2013-09-28 17:06:00,81.6,67.9,29.96,ESE,103,2.6,3.6,63,0.00,,---,0.01,VWS V14.01,2013-09-28 21:06:00,
2013-09-28 17:11:00,81.8,68.1,29.96,ENE,68,1.9,6.7,63,0.00,,---,0.01,VWS V14.01,2013-09-28 21:11:00,
2013-09-28 17:16:00,81.8,68.1,29.96,ESE,118,2.6,3.9,63,0.00,,---,0.01,VWS V14.01,2013-09-28 21:16:00,
2013-09-28 17:21:00,81.6,68.6,29.96,North,7,5.8,12.8,65,0.00,,---,0.01,VWS V14.01,2013-09-28 21:21:00,
2013-09-28 17:26:00,81.0,67.3,29.96,NNE,30,1.9,13.5,63,0.00,,---,0.01,VWS V14.01,2013-09-28 21:26:00,
2013-09-28 17:31:00,81.5,67.5,29.97,NNE,25,2.6,6.4,63,0.00,,---,0.01,VWS V14.01,2013-09-28 21:31:00,
2013-09-28 17:36:00,81.1,67.2,29.96,ENE,60,1.1,6.2,63,0.00,,---,0.01,VWS V14.01,2013-09-28 21:36:00,
2013-09-28 17:41:00,81.3,67.1,29.97,NE,35,5.0,7.9,62,0.00,,---,0.01,VWS V14.01,2013-09-28 21:41:00,
2013-09-28 17:46:00,82.0,67.5,29.97,East,96,0.9,4.3,62,0.00,,---,0.01,VWS V14.01,2013-09-28 21:46:00,
2013-09-28 17:51:00,82.4,66.9,29.97,NNE,14,2.2,4.6,60,0.00,,---,0.01,VWS V14.01,2013-09-28 21:51:00,
2013-09-28 17:56:00,82.1,66.5,29.97,East,82,2.2,3.2,59,0.00,,---,0.01,VWS V14.01,2013-09-28 21:56:00,
2013-09-28 18:01:00,82.5,66.8,29.97,NNE,17,4.1,4.1,59,0.00,,---,0.01,VWS V14.01,2013-09-28 22:01:00,
2013-09-28 18:06:00,81.8,66.1,29.97,ENE,65,3.2,8.3,59,0.00,,---,0.01,VWS V14.01,2013-09-28 22:06:00,
2013-09-28 18:11:00,81.6,66.5,29.97,NE,41,2.9,3.4,60,0.00,,---,0.01,VWS V14.01,2013-09-28 22:11:00,
2013-09-28 18:16:00,81.1,66.3,29.97,NE,35,1.1,2.2,61,0.00,,---,0.01,VWS V14.01,2013-09-28 22:16:00,
2013-09-28 18:21:00,80.9,66.2,29.97,ENE,60,2.7,7.7,61,0.00,,---,0.01,VWS V14.01,2013-09-28 22:21:00,
2013-09-28 18:26:00,81.0,66.7,29.97,North,354,1.6,3.2,62,0.00,,---,0.01,VWS V14.01,2013-09-28 22:26:00,
2013-09-28 18:31:00,81.2,67.1,29.97,NE,39,7.6,8.7,62,0.00,,---,0.01,VWS V14.01,2013-09-28 22:31:00,
2013-09-28 18:36:00,80.4,66.7,29.97,NE,42,5.0,8.5,63,0.00,,---,0.01,VWS V14.01,2013-09-28 22:36:00,
2013-09-28 18:41:00,80.2,66.8,29.98,East,82,2.7,6.8,64,0.00,,---,0.01,VWS V14.01,2013-09-28 22:41:00,
2013-09-28 18:46:00,80.4,67.3,29.98,NE,44,3.4,7.0,64,0.00,,---,0.01,VWS V14.01,2013-09-28 22:46:00,
2013-09-28 18:51:00,80.4,67.8,29.98,NNW,343,8.0,8.0,66,0.00,,---,0.01,VWS V14.01,2013-09-28 22:51:00,
2013-09-28 18:56:00,79.3,66.8,29.98,NE,56,2.7,2.9,66,0.00,,---,0.01,VWS V14.01,2013-09-28 22:56:00,
2013-09-28 19:01:00,79.9,67.8,29.98,NNE,25,2.7,7.4,66,0.00,,---,0.01,VWS V14.01,2013-09-28 23:01:00,
2013-09-28 19:06:00,80.1,68.1,29.98,ENE,68,2.2,6.3,67,0.00,,---,0.01,VWS V14.01,2013-09-28 23:06:00,
2013-09-28 19:11:00,79.5,67.6,29.98,NNE,27,2.1,6.6,67,0.00,,---,0.01,VWS V14.01,2013-09-28 23:11:00,
2013-09-28 19:16:00,78.3,66.4,29.98,NNE,32,1.8,4.4,67,0.00,,---,0.01,VWS V14.01,2013-09-28 23:16:00,
2013-09-28 19:21:00,79.1,67.6,29.98,North,357,4.6,7.1,68,0.00,,---,0.01,VWS V14.01,2013-09-28 23:21:00,
2013-09-28 19:26:00,79.0,67.6,29.98,NNE,13,5.8,6.3,68,0.00,,---,0.01,VWS V14.01,2013-09-28 23:26:00,
2013-09-28 19:31:00,79.0,67.9,29.99,NNE,21,3.5,3.5,69,0.00,,---,0.01,VWS V14.01,2013-09-28 23:31:00,
2013-09-28 19:36:00,78.7,67.7,29.99,NNE,30,1.0,5.8,69,0.00,,---,0.01,VWS V14.01,2013-09-28 23:36:00,
2013-09-28 19:41:00,78.3,67.4,29.99,NE,53,2.2,6.3,69,0.00,,---,0.01,VWS V14.01,2013-09-28 23:41:00,
2013-09-28 19:46:00,78.3,67.4,29.99,NE,55,1.9,5.5,69,0.00,,---,0.01,VWS V14.01,2013-09-28 23:46:00,
2013-09-28 19:51:00,78.1,67.2,29.99,NE,53,1.9,2.7,69,0.00,,---,0.01,VWS V14.01,2013-09-28 23:51:00,
2013-09-28 19:56:00,78.2,67.2,29.99,East,86,0.6,8.3,69,0.00,,---,0.01,VWS V14.01,2013-09-28 23:56:00,
2013-09-28 20:01:00,78.0,66.9,29.99,ENE,70,0.6,2.1,69,0.00,,---,0.01,VWS V14.01,2013-09-29 00:01:00,
2013-09-28 20:06:00,77.7,66.7,29.99,ENE,76,0.0,4.5,69,0.00,,---,0.01,VWS V14.01,2013-09-29 00:06:00,
2013-09-28 20:11:00,77.5,66.6,29.99,NE,52,0.9,1.9,69,0.00,,---,0.01,VWS V14.01,2013-09-29 00:11:00,
2013-09-28 20:16:00,77.7,66.7,29.99,NNW,343,2.1,2.1,69,0.00,,---,0.01,VWS V14.01,2013-09-29 00:16:00,
2013-09-28 20:21:00,77.9,67.0,29.99,ENE,60,1.6,6.6,69,0.00,,---,0.01,VWS V14.01,2013-09-29 00:21:00,
2013-09-28 20:26:00,77.8,66.8,29.99,NE,42,2.2,7.3,69,0.00,,---,0.01,VWS V14.01,2013-09-29 00:26:00,
2013-09-28 20:31:00,77.8,66.8,29.99,ESE,103,1.2,1.7,69,0.00,,---,0.01,VWS V14.01,2013-09-29 00:31:00,
2013-09-28 20:36:00,77.2,66.3,30.00,ENE,59,1.4,4.3,69,0.00,,---,0.01,VWS V14.01,2013-09-29 00:36:00,
2013-09-28 20:41:00,77.5,66.9,30.00,NE,41,0.7,7.1,70,0.00,,---,0.01,VWS V14.01,2013-09-29 00:41:00,
2013-09-28 20:46:00,77.9,67.7,30.00,ENE,75,2.3,6.3,71,0.00,,---,0.01,VWS V14.01,2013-09-29 00:46:00,
2013-09-28 20:51:00,76.9,67.3,30.01,NNE,14,2.6,3.3,72,0.00,,---,0.01,VWS V14.01,2013-09-29 00:51:00,
2013-09-28 20:56:00,77.1,67.8,30.01,ENE,73,1.3,3.9,73,0.00,,---,0.01,VWS V14.01,2013-09-29 00:56:00,
2013-09-28 21:01:00,77.3,68.1,30.01,NNE,18,6.2,6.2,73,0.00,,---,0.01,VWS V14.01,2013-09-29 01:01:00,
2013-09-28 21:06:00,77.8,68.8,30.01,ESE,118,2.2,5.5,74,0.00,,---,0.01,VWS V14.01,2013-09-29 01:06:00,
2013-09-28 21:11:00,77.4,68.6,30.01,NNE,25,1.0,2.7,74,0.00,,---,0.01,VWS V14.01,2013-09-29 01:11:00,
2013-09-28 21:16:00,77.3,68.3,30.01,NE,49,3.2,8.1,74,0.00,,---,0.01,VWS V14.01,2013-09-29 01:16:00,
2013-09-28 21:21:00,77.2,68.4,30.01,North,359,4.3,4.4,74,0.00,,---,0.01,VWS V14.01,2013-09-29 01:21:00,
2013-09-28 21:26:00,76.4,67.6,30.02,North,8,5.7,5.7,74,0.00,,---,0.01,VWS V14.01,2013-09-29 01:26:00,
2013-09-28 21:31:00,77.1,68.2,30.02,NE,35,1.9,5.5,74,0.00,,---,0.01,VWS V14.01,2013-09-29 01:31:00,
2013-09-28 21:36:00,77.2,68.4,30.01,North,352,6.2,10.3,74,0.00,,---,0.01,VWS V14.01,2013-09-29 01:36:00,
2013-09-28 21:41:00,77.4,68.6,30.02,NNE,32,1.2,2.6,74,0.00,,---,0.01,VWS V14.01,2013-09-29 01:41:00,
2013-09-28 21:46:00,76.6,67.9,30.02,North,357,6.7,6.8,74,0.00,,---,0.01,VWS V14.01,2013-09-29 01:46:00,
2013-09-28 21:51:00,76.2,67.6,30.02,North,359,5.0,5.5,75,0.00,,---,0.01,VWS V14.01,2013-09-29 01:51:00,
2013-09-28 21:56:00,76.4,67.7,30.02,NE,44,2.4,2.4,75,0.00,,---,0.01,VWS V14.01,2013-09-29 01:56:00,
2013-09-28 22:01:00,76.7,68.1,30.02,NNE,21,1.3,4.8,75,0.00,,---,0.01,VWS V14.01,2013-09-29 02:01:00,
2013-09-28 22:06:00,76.2,67.7,30.02,North,11,3.0,6.2,75,0.00,,---,0.01,VWS V14.01,2013-09-29 02:06:00,
2013-09-28 22:11:00,76.7,68.3,30.01,North,0,3.0,3.0,75,0.00,,---,0.01,VWS V14.01,2013-09-29 02:11:00,
2013-09-28 22:16:00,76.7,68.5,30.01,NNE,15,3.4,5.8,76,0.00,,---,0.01,VWS V14.01,2013-09-29 02:16:00,
2013-09-28 22:21:00,75.7,67.8,30.02,NE,39,3.4,4.0,76,0.00,,---,0.01,VWS V14.01,2013-09-29 02:21:00,
2013-09-28 22:26:00,76.3,68.5,30.02,NNE,20,2.0,2.1,77,0.00,,---,0.01,VWS V14.01,2013-09-29 02:26:00,
2013-09-28 22:31:00,76.4,68.8,30.01,North,11,3.4,4.7,78,0.00,,---,0.01,VWS V14.01,2013-09-29 02:31:00,
2013-09-28 22:36:00,76.3,68.9,30.01,NE,37,3.7,4.4,78,0.00,,---,0.01,VWS V14.01,2013-09-29 02:36:00,
2013-09-28 22:41:00,75.8,68.6,30.01,NE,35,3.3,5.0,78,0.00,,---,0.01,VWS V14.01,2013-09-29 02:41:00,
2013-09-28 22:46:00,76.0,68.9,30.01,NNE,27,1.9,4.3,79,0.00,,---,0.01,VWS V14.01,2013-09-29 02:46:00,
2013-09-28 22:51:00,75.0,68.1,30.01,NNE,27,1.3,3.9,79,0.00,,---,0.01,VWS V14.01,2013-09-29 02:51:00,
2013-09-28 22:56:00,75.1,68.3,30.01,NNE,27,2.7,4.0,79,0.00,,---,0.01,VWS V14.01,2013-09-29 02:56:00,
2013-09-28 23:01:00,75.4,68.7,30.01,North,357,2.4,2.5,80,0.00,,---,0.01,VWS V14.01,2013-09-29 03:01:00,
2013-09-28 23:06:00,76.0,69.4,30.01,NNE,13,5.8,5.8,80,0.00,,---,0.01,VWS V14.01,2013-09-29 03:06:00,
2013-09-28 23:11:00,75.6,69.1,30.01,NNW,346,4.1,5.7,80,0.00,,---,0.01,VWS V14.01,2013-09-29 03:11:00,
2013-09-28 23:16:00,75.8,69.5,30.01,NNE,30,2.7,4.2,81,0.00,,---,0.01,VWS V14.01,2013-09-29 03:16:00,
2013-09-28 23:21:00,75.1,69.1,30.01,North,7,4.2,5.9,82,0.00,,---,0.01,VWS V14.01,2013-09-29 03:21:00,
2013-09-28 23:26:00,74.8,68.9,30.01,North,356,3.0,6.2,82,0.00,,---,0.01,VWS V14.01,2013-09-29 03:26:00,
2013-09-28 23:31:00,75.2,69.5,30.01,North,359,4.5,4.9,82,0.00,,---,0.01,VWS V14.01,2013-09-29 03:31:00,
2013-09-28 23:36:00,74.5,68.9,30.01,NNE,20,3.2,3.2,83,0.00,,---,0.01,VWS V14.01,2013-09-29 03:36:00,
2013-09-28 23:41:00,75.0,69.6,30.00,NNE,25,2.1,7.3,83,0.00,,---,0.01,VWS V14.01,2013-09-29 03:41:00,
2013-09-28 23:46:00,74.0,68.8,30.00,NNE,17,2.9,4.2,84,0.00,,---,0.01,VWS V14.01,2013-09-29 03:46:00,
2013-09-28 23:51:00,73.9,68.9,30.00,North,1,3.7,4.1,84,0.00,,---,0.01,VWS V14.01,2013-09-29 03:51:00,